GFSSE_sfc_rhum_219.txt.gz
RH
84 93 95 96 95 94 93 93 94 94 95 94 93 93 92 92 92 91 90 88 84 80 80 80 79 76 75 80 85 88 89 88 88 86 81 76 78 76 78 82 78 68 75
84 90 96 96 96 94 93 93 93 94 94 94 94 94 92 92 92 90 90 88 85 80 79 79 77 75 74 79 85 87 88 88 88 88 84 78 76 77 78 83 84 78 78
83 90 90 97 96 94 92 92 93 93 93 93 94 94 92 92 91 89 88 85 80 79 79 78 76 74 75 78 82 82 81 86 87 87 84 83 82 76 80 85 86 81 78
80 85 91 97 96 95 94 93 93 93 93 94 94 93 93 92 90 88 88 84 79 79 78 76 76 76 78 81 80 79 78 79 83 87 86 78 66 77 77 79 82 80 79
70 80 91 97 97 96 95 94 94 95 95 95 94 93 93 91 89 88 89 87 86 81 77 76 78 79 82 81 79 78 79 81 83 78 81 73 78 78 79 78 81 83 84
65 84 95 97 97 97 96 95 96 96 96 96 95 94 92 91 89 89 90 89 87 83 78 80 80 82 82 81 79 78 81 86 86 74 82 70 75 77 77 82 85 86 87
71 85 92 96 96 96 96 97 97 97 96 96 95 94 93 92 91 90 90 89 88 85 86 84 84 83 82 79 76 77 84 91 82 82 80 83 80 79 80 82 84 86 85
84 88 90 94 96 97 97 97 97 97 96 96 95 94 94 93 91 91 91 90 89 88 89 88 86 84 83 79 79 80 86 90 77 86 87 87 86 81 81 84 85 88 86
85 91 95 94 94 97 97 97 97 97 96 96 95 95 94 93 92 91 91 91 91 90 90 88 87 86 82 81 82 83 89 91 90 88 80 95 87 82 81 84 85 84 85
87 92 97 97 97 98 97 96 96 96 96 96 95 95 95 94 92 91 91 92 92 91 91 90 87 84 81 80 82 84 88 89 86 90 92 95 87 81 81 83 84 84 85
82 87 94 96 97 98 97 93 96 95 96 95 95 96 100 98 96 93 95 94 93 92 91 90 88 85 81 79 82 84 88 87 91 94 98 90 85 77 77 80 82 87 85
82 82 84 91 95 95 80 98 98 94 98 98 98 99 98 95 96 88 90 95 93 92 92 91 88 85 81 82 88 88 92 84 91 95 98 90 84 77 76 77 79 80 88
73 72 76 81 91 93 85 98 99 99 99 98 95 98 96 88 94 93 99 97 99 95 98 96 94 89 82 83 78 87 84 84 94 93 92 89 83 75 71 72 73 78 89
67 69 70 74 81 86 90 88 90 90 92 94 92 95 95 98 96 98 93 98 99 98 98 98 97 88 84 78 74 77 76 84 91 95 95 89 84 77 71 69 73 81 88
61 64 66 72 76 78 86 82 81 82 83 83 85 87 86 92 96 97 97 95 95 97 96 96 93 84 83 79 68 60 67 75 84 90 98 90 87 83 72 69 72 81 86
56 61 69 72 72 74 85 77 71 71 78 82 80 84 88 96 97 97 97 94 90 81 84 89 81 82 83 68 60 59 63 66 80 88 92 96 89 85 81 79 78 80 84
56 59 69 74 73 73 81 79 77 68 69 74 76 86 88 94 95 95 96 97 92 75 75 77 81 77 71 62 62 63 67 69 76 85 92 98 95 90 88 87 85 85 84
72 66 74 62 72 78 84 92 93 92 86 86 96 95 93 92 93 95 96 96 93 80 72 67 71 69 68 67 67 74 72 75 72 86 97 98 98 94 91 89 86 83 81
82 79 87 81 88 93 94 94 95 91 95 93 92 94 92 93 94 95 97 96 93 86 79 69 67 65 70 64 68 76 79 77 72 82 96 97 95 95 94 88 87 87 86
88 92 92 94 95 95 97 96 97 97 98 95 96 95 89 90 90 95 96 95 95 90 86 77 69 69 61 58 45 64 82 78 76 91 92 87 90 87 92 94 96 95 86
79 91 93 94 97 98 98 99 98 97 98 98 97 94 94 95 94 95 97 96 96 96 91 84 72 65 70 66 64 67 79 80 77 85 91 91 87 84 89 88 90 89 84
62 70 86 93 95 96 97 97 91 93 94 93 96 97 96 96 96 97 97 98 97 98 96 95 85 78 72 74 58 70 75 75 80 82 92 88 91 86 82 78 78 81 84
52 51 46 48 49 63 94 94 96 94 95 95 96 97 97 96 96 98 97 98 98 99 99 98 98 95 88 82 66 67 78 79 85 79 88 91 91 88 81 77 75 75 80
53 46 45 45 45 49 54 71 86 86 93 81 84 94 94 95 95 96 97 98 98 99 99 99 98 98 95 92 90 69 69 66 75 78 79 90 90 87 84 80 77 73 76
47 50 49 49 48 52 54 58 67 69 71 70 74 68 68 86 94 94 95 96 99 99 98 98 99 99 97 95 91 79 83 84 83 74 82 72 77 85 82 79 76 75 74
52 50 45 46 47 50 52 54 59 62 62 65 64 65 69 77 86 90 90 93 96 98 98 98 99 99 98 96 92 87 83 80 76 80 82 75 68 71 76 77 77 70 78

GFSSE_sfc_rhum_225.txt.gz
RH
98 97 96 95 94 93 92 92 92 91 91 91 91 91 91 90 91 92 92 91 88 83 80 79 79 80 81 82 85 87 90 91 89 86 80 78 77 76 77 79 79 76 72
94 88 97 96 95 94 92 92 91 91 90 90 92 92 92 92 91 90 90 90 87 81 79 78 76 78 81 84 87 89 90 92 91 88 82 77 78 78 80 82 81 77 75
94 91 95 96 95 94 92 92 91 90 90 90 91 92 92 91 90 90 89 88 87 81 78 75 74 74 78 82 86 88 91 91 88 88 84 89 88 79 81 82 81 78 76
91 90 95 96 95 94 94 93 92 90 90 90 91 92 92 91 90 89 90 90 87 80 77 74 73 73 76 81 83 84 83 83 86 89 92 84 75 78 80 82 80 81 81
92 90 96 96 96 94 95 94 93 92 92 92 92 91 91 90 89 87 89 90 87 80 78 75 74 75 79 80 81 83 83 81 83 78 87 85 88 76 78 80 82 84 84
96 92 99 96 95 95 95 94 94 94 94 94 93 92 91 90 89 88 90 91 87 82 79 77 76 78 80 79 80 85 84 84 86 81 86 83 90 80 78 83 84 85 86
96 96 96 97 96 94 94 94 95 95 95 94 94 93 92 91 90 91 91 92 90 88 83 80 80 81 79 78 80 85 88 89 88 91 91 90 87 80 79 82 83 84 85
95 95 93 97 96 96 96 97 96 96 96 96 95 94 93 92 92 91 92 92 92 92 90 86 84 82 78 78 81 85 89 90 84 93 91 91 88 81 79 82 85 85 84
95 97 93 92 96 97 99 98 98 97 97 97 96 96 95 93 93 92 92 92 92 91 89 86 84 83 81 77 81 87 88 89 92 97 88 97 88 82 80 82 83 84 84
97 99 94 90 90 95 99 99 98 98 98 97 97 97 96 95 94 94 93 93 93 91 89 87 86 85 83 80 81 84 86 88 93 96 97 98 90 82 81 82 82 83 83
96 99 99 95 91 93 94 98 99 98 98 98 97 97 99 98 96 95 96 94 94 92 91 89 87 87 85 83 83 84 85 97 96 98 98 92 90 81 78 84 85 85 84
98 96 98 97 96 96 90 94 99 99 99 99 99 98 99 98 98 96 96 96 94 94 92 91 89 87 88 93 91 87 95 93 97 98 98 94 90 79 79 85 89 87 86
94 97 98 99 99 99 95 94 97 98 99 100 99 99 99 98 98 99 99 99 99 96 99 96 96 97 94 94 91 90 92 91 98 98 97 94 90 80 77 78 80 86 88
96 96 97 98 98 98 98 96 95 97 100 100 99 99 99 100 99 99 99 99 100 99 99 99 99 97 96 93 89 86 88 92 98 99 98 96 91 84 77 74 73 75 83
93 95 98 97 97 98 98 99 99 99 99 99 99 99 99 99 98 98 99 99 97 96 100 99 99 98 97 95 93 87 83 88 95 99 99 96 93 89 78 73 71 74 79
82 88 94 96 96 97 97 97 98 98 98 98 98 97 97 98 98 98 99 99 99 99 99 99 99 98 98 95 91 86 77 81 94 97 99 98 94 91 86 77 71 74 74
75 80 90 93 95 96 97 96 96 95 95 98 98 97 96 97 97 97 98 99 98 99 98 99 98 98 98 92 88 80 74 74 96 96 98 98 97 93 90 86 85 83 81
77 84 88 85 92 95 96 94 90 93 96 96 98 98 96 96 96 97 98 98 98 98 98 98 98 98 93 94 91 81 73 73 82 95 97 98 98 98 94 92 90 89 87
75 82 88 88 92 92 93 97 96 95 97 97 97 98 96 96 95 96 98 97 97 97 98 95 96 96 94 85 79 75 69 71 76 88 97 97 98 98 98 96 94 93 86
73 84 85 89 92 93 98 98 99 99 98 98 97 95 94 94 95 96 98 97 96 96 96 93 88 86 76 79 63 61 64 69 73 91 96 95 98 97 97 98 98 97 90
92 89 89 89 94 96 98 99 99 99 99 98 98 96 96 97 96 97 97 97 96 97 96 95 88 79 77 70 67 67 68 71 79 86 90 97 97 97 97 97 98 98 94
92 89 94 93 96 93 95 98 97 98 98 96 98 97 96 96 97 98 98 98 98 99 98 99 96 96 91 90 84 80 80 75 79 83 91 95 97 97 97 96 97 97 97
97 97 94 95 95 94 92 92 96 95 96 97 98 98 97 96 97 97 98 98 98 99 99 99 99 99 99 97 92 92 92 86 80 86 95 94 95 98 97 96 96 96 96
96 95 95 95 94 94 91 89 91 90 94 86 94 96 94 95 96 95 96 98 98 99 99 99 99 99 99 99 97 91 94 91 94 92 76 95 97 98 96 93 92 92 90
69 73 80 86 92 93 91 84 94 76 78 77 75 71 75 88 95 96 98 98 99 99 99 99 99 99 98 98 98 97 94 92 92 92 95 80 90 95 94 92 91 91 88
62 65 68 74 76 77 72 80 70 68 70 67 71 81 87 85 89 95 96 97 97 97 97 98 98 97 99 96 94 99 99 98 96 96 95 89 86 78 80 85 89 88 89

GFSSE_sfc_rhum_228.txt.gz
RH
95 97 88 93 93 94 94 92 92 91 91 91 90 90 90 91 92 92 92 90 88 82 80 79 80 80 80 82 85 88 88 90 89 85 79 74 75 75 78 79 79 73 72
94 96 96 95 93 93 93 92 92 91 90 90 90 90 91 92 93 93 92 90 86 80 78 77 79 80 82 84 86 88 89 91 90 87 81 78 78 78 80 81 80 75 73
94 91 96 96 93 92 92 91 91 90 90 90 91 91 91 92 92 92 92 89 86 80 76 74 76 79 83 87 90 91 91 90 89 88 84 87 84 76 81 82 81 79 75
93 87 90 96 94 93 92 91 90 89 90 91 92 92 92 91 91 91 91 90 86 79 75 72 72 76 81 84 86 88 90 89 90 89 86 83 76 76 80 81 81 81 78
94 84 90 96 95 94 93 92 90 90 91 91 92 92 92 91 91 90 93 91 86 80 74 72 72 75 80 83 83 83 83 82 82 79 89 84 83 76 78 81 83 84 82
90 84 95 96 96 95 94 93 93 92 92 93 92 91 91 89 89 90 92 91 87 81 76 73 75 78 81 81 82 82 82 82 83 78 84 83 86 77 77 82 84 84 86
87 88 96 96 95 94 93 94 94 93 93 93 93 93 92 90 89 91 92 92 90 86 80 78 79 82 80 81 82 84 87 87 85 87 90 92 89 79 78 81 82 83 84
90 88 97 96 95 96 96 95 95 94 94 94 93 93 93 92 91 92 92 92 92 91 88 84 82 81 80 81 82 84 88 87 82 91 91 89 88 80 78 81 84 84 83
95 90 91 96 97 97 97 96 96 96 96 95 94 94 94 93 92 92 92 92 93 91 87 84 83 81 79 80 83 85 86 86 89 93 86 93 88 82 78 80 82 83 83
90 88 90 86 92 91 98 97 97 97 96 96 96 96 96 94 93 93 93 93 92 91 87 85 85 84 80 80 82 84 85 90 90 93 91 92 90 80 79 80 81 82 82
92 89 86 89 86 87 90 97 98 97 97 97 97 97 99 98 96 95 96 94 93 91 89 88 86 86 85 84 84 83 85 92 95 96 94 93 90 80 76 82 84 84 83
95 92 94 88 86 92 88 94 96 96 98 99 99 98 99 98 98 97 96 95 94 93 92 91 89 88 88 92 89 86 89 90 96 95 95 93 91 81 73 84 87 87 86
94 94 90 88 92 90 86 94 96 95 96 98 99 94 99 99 99 99 99 99 99 96 99 97 96 97 94 94 91 88 89 88 96 96 95 96 91 83 78 82 84 86 88
97 96 94 92 93 91 88 89 92 94 94 95 98 96 99 100 99 99 99 98 99 99 99 99 99 98 96 94 91 88 85 88 94 96 96 97 93 86 79 77 76 76 80
97 97 92 97 98 95 94 90 90 91 94 92 98 99 99 99 99 99 99 98 94 90 95 99 99 98 97 95 93 92 86 85 88 95 96 97 96 91 84 77 74 73 75
89 97 92 96 97 98 98 96 94 95 97 99 100 99 98 98 98 98 98 98 99 93 94 99 99 99 98 96 93 89 87 81 84 94 96 96 97 94 91 84 76 72 73
85 93 97 96 97 98 98 98 99 99 99 99 99 98 98 98 97 96 98 99 98 99 99 99 98 98 98 94 95 88 83 77 80 91 95 96 96 95 93 90 86 84 80
86 93 96 93 97 97 96 96 98 98 99 99 99 98 97 97 96 97 98 98 98 98 99 99 99 99 99 94 91 91 84 78 75 85 95 96 97 95 94 92 88 89 88
82 90 96 95 97 96 96 97 98 97 98 98 98 98 96 96 96 97 97 97 98 97 97 96 97 97 98 97 90 86 83 80 74 73 89 95 96 95 94 93 92 93 91
82 89 90 93 95 96 98 99 99 98 98 98 98 98 96 96 94 96 97 96 97 98 98 98 96 90 89 87 75 75 76 72 72 82 85 90 94 95 95 96 94 93 95
85 92 91 94 95 96 98 98 99 97 99 99 98 96 97 96 94 95 96 97 97 97 97 97 95 90 84 78 72 72 72 68 72 66 81 86 94 95 96 96 94 96 94
82 90 90 92 96 94 95 95 97 98 99 98 99 98 97 97 97 98 98 98 98 99 98 98 97 96 92 88 86 81 85 78 78 76 82 88 94 95 97 96 96 96 95
95 94 90 91 95 93 94 98 99 97 99 99 99 99 98 98 98 98 98 98 99 99 99 99 98 98 99 97 92 93 95 90 88 80 82 86 94 97 97 96 96 95 96
94 94 93 94 94 93 96 94 96 94 98 97 97 97 96 96 97 96 97 98 99 99 99 99 99 99 99 99 97 92 94 94 98 96 78 78 91 91 96 96 95 94 93
92 89 91 91 92 97 94 93 96 92 83 82 93 80 89 97 98 98 98 98 99 98 98 98 98 98 97 96 92 95 92 95 98 98 94 90 85 85 92 94 94 95 93
84 93 98 95 94 96 93 93 84 76 79 83 86 92 90 94 98 98 97 98 98 98 98 98 98 98 98 96 95 96 97 97 95 94 93 87 82 86 87 88 93 94 93

GFSSE_sfc_rhum_231.txt.gz
RH
61 63 91 92 94 93 93 94 94 92 91 90 90 90 90 91 92 91 91 90 87 83 78 79 80 80 79 81 83 86 88 90 88 82 76 74 74 76 78 78 75 56 73
68 68 93 93 95 93 92 93 93 92 91 91 91 91 92 92 93 92 91 89 86 80 78 79 80 80 81 85 87 87 88 90 89 85 80 77 77 77 79 79 80 64 73
72 72 74 94 95 92 90 91 91 91 91 91 91 92 92 93 93 92 91 88 85 79 76 78 79 80 83 86 89 88 88 88 88 87 82 51 55 78 79 81 79 76 73
74 77 70 95 94 93 92 91 90 89 90 91 91 91 92 92 92 92 91 89 85 78 73 74 78 81 84 88 91 90 87 90 89 86 53 54 52 77 78 79 79 78 75
70 73 76 94 94 93 93 92 91 91 91 91 91 91 91 91 92 91 92 90 85 79 72 72 75 79 82 84 85 85 86 87 85 72 60 56 51 68 77 80 76 79 79
68 70 90 96 95 93 93 92 92 92 93 93 92 92 91 91 91 92 92 90 86 80 73 74 75 77 81 81 81 80 82 81 80 52 59 64 56 74 76 81 83 83 85
70 73 85 95 94 93 92 92 92 93 93 93 93 92 91 91 91 92 92 91 89 84 79 77 78 80 81 80 81 81 83 84 53 55 60 62 61 75 75 78 81 82 84
75 84 84 93 95 94 94 94 93 93 93 94 94 93 92 91 91 92 93 93 91 89 86 84 83 81 81 81 80 82 83 85 61 65 64 58 79 78 76 78 81 82 82
76 82 85 82 86 97 96 95 94 94 93 94 94 94 93 92 93 93 93 94 91 88 85 84 83 81 80 81 81 82 84 85 58 60 59 59 87 80 76 78 79 80 80
78 78 82 82 81 83 85 96 96 95 94 94 94 94 94 93 93 93 93 93 91 88 85 84 83 81 79 80 82 82 85 88 54 59 57 56 89 79 77 78 78 80 79
81 80 79 77 80 84 83 84 96 96 95 96 92 95 92 66 70 77 80 94 92 90 87 85 84 83 82 82 82 83 83 49 56 59 54 87 89 80 76 80 82 82 81
86 84 78 80 80 81 76 87 82 78 74 75 74 79 70 73 69 65 78 94 93 92 90 89 87 85 80 56 53 70 47 56 60 61 56 91 89 81 73 81 85 85 85
79 84 81 81 82 82 81 86 83 81 84 83 79 80 77 74 75 69 68 68 71 86 67 74 72 63 68 62 58 59 56 56 55 59 68 94 90 84 78 81 85 85 87
77 82 82 79 86 84 76 79 81 81 89 87 88 88 90 79 80 74 67 68 71 65 70 70 65 71 72 70 68 64 60 56 50 54 65 94 93 87 81 79 78 78 81
71 77 83 82 86 86 84 81 83 85 85 84 91 91 89 78 82 72 74 68 66 66 76 74 70 67 70 69 67 64 62 58 58 52 56 94 95 91 85 79 76 76 76
66 72 78 85 88 87 84 85 84 84 82 85 91 88 90 84 84 80 76 68 67 65 77 86 69 68 68 69 67 66 60 57 54 56 53 60 96 94 92 86 80 76 74
66 67 74 83 88 89 85 83 83 84 85 88 86 88 85 82 82 78 78 68 63 68 81 75 75 73 71 68 70 67 63 58 54 55 54 56 60 97 95 92 90 86 79
63 71 74 78 84 83 83 78 76 78 78 75 75 78 84 82 79 81 77 70 63 69 71 71 71 71 70 69 69 80 66 63 57 55 52 55 55 54 79 95 91 89 87
64 71 77 81 86 84 81 84 84 82 78 72 75 78 82 81 80 76 72 67 70 70 86 87 88 86 86 82 67 65 74 75 68 58 55 55 60 62 57 79 94 92 90
64 71 76 81 87 86 88 84 85 90 87 75 73 73 78 76 76 78 74 76 76 82 87 88 86 84 83 72 64 62 64 68 67 62 59 54 56 60 60 63 62 65 92
64 73 77 80 82 88 92 90 86 88 85 85 81 74 76 78 75 77 77 82 89 86 86 91 83 78 76 76 69 66 61 59 62 61 51 51 52 54 61 62 65 59 59
65 70 73 75 78 81 83 77 72 79 74 67 75 81 80 79 79 81 82 84 90 91 92 92 90 90 88 81 81 77 84 63 53 52 52 53 60 56 57 62 66 67 65
59 70 70 72 74 77 77 73 82 75 86 82 86 88 86 84 85 90 93 95 95 95 95 96 96 92 94 94 85 89 95 69 67 56 55 54 62 58 59 60 65 66 66
64 64 66 70 73 74 77 73 80 71 82 83 95 94 93 92 96 96 96 96 96 96 95 97 96 96 96 96 85 74 80 81 88 76 54 55 54 58 62 57 59 61 63
61 70 72 73 75 77 79 74 80 72 77 85 88 88 91 93 94 94 91 94 94 93 95 83 83 82 79 78 81 85 80 72 69 80 81 56 52 49 48 54 62 61 62
74 78 77 78 79 81 83 80 78 80 79 82 84 84 85 93 92 90 90 89 86 85 84 85 87 84 82 82 80 80 83 84 76 75 72 64 65 51 47 50 46 44 48

GFSSE_sfc_rhum_234.txt.gz
RH
27 38 91 93 93 95 96 94 92 91 90 89 90 91 91 92 91 92 91 90 86 82 78 79 79 78 79 80 84 85 86 88 87 80 75 75 75 76 77 77 75 46 74
29 41 93 94 93 94 95 94 93 92 91 90 91 92 92 92 92 92 91 88 85 80 78 79 79 79 81 84 86 86 86 88 88 84 78 76 77 76 78 80 80 61 75
35 41 60 94 93 94 94 94 93 92 91 91 92 93 93 93 93 92 90 88 84 79 78 78 79 79 82 84 86 85 84 85 85 80 72 34 45 76 78 80 78 75 75
38 41 44 96 92 93 93 93 92 92 92 92 92 92 93 93 92 91 90 88 83 79 76 77 79 81 84 87 87 84 84 87 83 77 40 36 36 78 77 78 78 78 77
41 38 48 94 93 92 93 93 92 92 92 92 92 92 92 92 92 90 91 88 83 78 74 76 80 81 84 87 87 85 83 82 75 69 41 43 38 66 75 76 70 76 83
42 38 80 95 93 92 92 92 92 92 92 92 92 92 92 92 91 91 91 88 83 79 74 74 76 77 81 81 79 75 73 71 79 38 43 52 45 75 74 78 80 81 84
44 43 65 95 93 91 90 92 92 92 92 93 92 92 92 92 92 92 91 90 86 82 78 76 76 77 78 78 75 74 77 79 46 39 41 45 52 74 74 76 77 79 81
50 55 57 90 94 93 92 93 93 93 93 94 94 93 93 93 93 92 92 91 89 87 85 83 82 81 79 75 73 78 80 81 46 44 46 40 80 75 74 76 77 78 79
54 65 62 65 77 97 95 95 95 94 94 94 94 94 93 92 93 93 92 92 89 86 84 84 82 82 81 77 75 78 81 79 42 36 37 40 85 77 74 75 76 76 77
54 59 61 57 65 71 73 95 94 94 94 94 94 94 93 93 93 93 93 92 89 86 85 84 83 82 80 78 77 78 79 78 38 33 35 46 83 77 75 76 76 75 76
54 56 56 57 61 64 65 73 92 94 94 95 91 94 89 52 60 71 70 92 90 86 86 85 84 82 81 80 76 76 81 31 36 34 32 86 85 78 77 78 78 79 78
55 55 53 57 60 60 50 67 66 62 59 60 60 68 52 51 49 44 66 92 91 89 88 87 86 84 82 39 43 65 34 36 38 38 36 85 85 80 76 77 82 81 81
49 52 54 58 60 60 54 55 53 53 53 55 60 61 53 52 53 47 49 55 57 82 54 66 66 48 48 44 40 42 38 41 32 35 58 88 85 82 80 77 82 84 84
45 51 55 53 62 64 52 57 53 49 56 55 54 62 56 54 55 49 43 44 49 46 47 48 44 52 55 54 52 48 46 38 30 32 51 90 90 85 82 78 79 79 80
46 49 53 54 62 62 62 55 55 53 75 70 66 79 57 50 55 49 47 44 41 42 46 49 50 49 53 54 52 50 44 43 43 35 33 90 92 90 84 80 78 77 77
45 52 55 58 60 61 58 60 60 73 70 72 76 78 79 55 57 50 50 45 43 42 44 51 50 49 50 50 54 53 48 41 41 43 37 46 92 93 91 86 82 78 76
44 48 57 66 68 67 63 62 61 70 65 75 77 81 81 62 62 55 47 46 42 44 56 58 58 58 52 50 54 52 51 51 42 44 42 40 47 94 93 93 91 87 83
39 46 51 54 69 76 69 58 56 56 65 68 66 65 71 64 60 60 50 49 43 47 50 51 56 60 54 53 58 60 54 50 50 48 43 41 39 37 78 92 93 91 90
38 44 50 54 60 67 66 58 59 60 58 52 52 50 63 63 62 55 50 47 50 49 56 58 61 60 55 52 48 49 49 52 52 46 48 47 47 44 40 83 94 94 92
37 45 52 53 59 64 60 61 55 53 52 47 50 49 63 58 61 58 46 52 53 50 55 56 59 56 57 55 46 45 48 46 48 50 50 47 47 50 47 46 48 51 94
35 45 53 58 62 62 60 61 58 57 54 52 50 54 59 54 58 59 51 57 59 54 54 62 61 65 73 65 59 51 47 48 52 47 46 44 45 44 47 48 48 43 44
30 42 50 54 59 60 58 55 52 52 48 49 51 55 57 60 61 60 61 60 63 60 68 74 76 74 75 68 71 65 62 46 42 42 43 42 52 44 43 46 51 51 50
32 38 45 50 54 59 58 53 54 50 52 53 54 54 58 63 65 65 68 66 70 72 76 82 86 84 89 84 77 88 82 56 52 36 43 41 51 46 46 44 48 48 49
42 37 42 45 50 55 58 55 60 51 54 51 53 57 68 67 72 74 76 82 87 91 93 95 95 92 92 92 83 78 72 63 54 51 36 39 41 43 44 42 37 38 42
35 39 43 43 48 53 59 57 56 52 49 49 62 88 92 92 89 88 89 92 94 96 96 95 88 74 75 66 62 63 65 64 64 66 54 37 34 30 30 33 39 37 32
36 49 47 44 47 54 60 61 60 63 53 71 82 86 97 95 94 92 84 83 84 76 74 72 72 65 59 56 51 54 54 55 46 47 45 42 40 36 32 33 34 31 32

GFSSE_sfc_rhum_237.txt.gz
RH
26 46 93 94 95 94 93 92 92 92 93 92 91 92 93 92 92 92 90 88 85 81 78 78 79 79 79 81 83 84 84 86 85 79 75 75 74 75 77 79 74 54 79
29 47 94 94 95 95 93 91 92 92 92 91 92 93 93 93 93 92 89 87 84 78 77 79 79 80 81 84 84 83 83 86 85 79 77 76 76 76 78 79 79 67 79
34 44 64 94 95 95 92 90 91 91 91 91 92 93 93 93 92 91 89 86 84 78 78 78 79 80 81 83 84 82 80 80 75 72 77 42 50 76 77 78 78 78 78
32 42 50 96 95 94 93 92 92 91 91 92 92 92 93 93 92 90 89 87 84 79 77 77 78 80 82 84 83 81 84 82 78 78 54 37 40 76 75 76 76 79 79
30 35 53 94 95 94 93 93 92 92 93 93 93 93 93 92 91 89 89 86 83 78 76 78 80 82 85 88 85 83 82 78 79 69 52 47 48 64 71 73 65 76 84
29 30 85 95 95 94 93 93 93 93 93 94 93 93 92 92 91 90 89 86 82 79 76 78 79 80 82 81 78 74 71 72 80 35 42 47 52 72 73 75 78 80 83
30 34 67 94 94 94 93 93 93 93 93 93 93 93 93 92 92 91 90 87 84 81 77 76 76 77 79 75 72 70 72 75 45 32 32 52 58 73 72 73 75 77 80
34 45 56 89 93 94 93 94 93 92 92 93 93 94 93 94 92 92 91 89 87 86 83 82 81 79 77 74 71 71 71 78 42 36 37 57 78 74 72 73 74 75 77
37 48 56 61 76 95 95 95 94 93 93 94 94 94 94 94 93 92 91 90 88 86 84 82 80 80 78 74 70 71 74 75 45 32 31 46 84 75 73 72 73 74 75
42 46 52 51 58 68 76 95 94 94 94 94 94 94 94 93 93 92 92 90 88 85 84 82 81 80 78 75 74 68 74 78 40 29 30 58 84 75 74 73 73 72 74
47 48 48 48 54 58 59 73 92 95 94 95 91 93 90 51 62 74 69 90 87 85 85 83 82 81 80 78 75 70 78 34 31 30 38 88 80 76 76 76 76 76 76
48 49 46 49 54 57 45 64 63 61 60 60 60 68 51 48 48 44 65 90 88 86 86 84 84 83 81 42 48 69 39 32 32 33 50 86 82 77 76 76 80 79 79
45 44 43 52 57 56 50 54 51 51 52 54 58 61 53 45 48 41 54 56 60 81 58 68 66 54 45 40 35 38 34 37 28 30 70 85 82 79 77 78 78 82 82
41 44 41 44 58 60 44 50 48 46 50 50 53 63 57 48 49 46 40 41 46 47 48 51 48 59 48 48 47 44 43 36 27 28 62 86 84 81 78 78 78 79 79
39 43 42 44 55 55 53 45 47 47 47 48 49 60 50 45 51 45 41 39 39 39 41 42 54 46 50 48 48 47 42 39 37 31 32 89 90 87 83 78 77 78 78
34 42 44 44 51 53 51 54 52 49 45 52 46 49 62 49 53 45 43 41 38 36 37 41 43 53 50 48 49 49 45 40 38 39 35 56 89 90 88 84 81 79 78
32 38 45 46 51 56 54 49 49 46 52 71 63 75 67 57 54 54 44 44 38 39 47 46 48 46 63 62 62 69 56 51 41 43 41 39 59 92 89 88 88 87 84
30 37 44 42 50 58 54 48 46 48 51 64 63 75 80 61 51 56 46 46 42 44 44 45 57 62 56 68 72 57 66 49 62 53 44 41 38 36 84 90 89 89 90
28 35 44 49 52 57 56 50 53 55 54 49 57 56 68 61 53 52 44 44 46 43 45 57 68 72 73 60 51 67 71 71 60 47 47 45 46 44 41 85 92 93 91
27 37 44 49 56 64 58 57 48 48 52 48 50 46 60 58 56 55 44 48 46 44 62 61 58 65 50 60 46 55 66 67 69 67 64 56 62 59 47 48 55 63 92
27 34 43 47 55 58 56 56 50 51 50 48 43 47 52 57 58 62 49 50 53 57 68 69 57 60 72 63 59 59 68 56 60 63 65 60 61 57 60 59 56 51 57
23 34 39 43 49 52 50 48 45 46 44 42 43 48 51 60 60 59 59 53 59 55 67 66 70 74 67 73 65 62 56 51 56 46 45 40 52 44 51 52 53 50 48
24 33 38 42 46 52 50 44 46 45 46 45 47 48 52 56 58 59 58 58 66 68 75 72 71 71 79 78 71 69 66 53 46 36 43 37 49 43 43 41 43 40 40
28 30 35 40 43 50 54 48 54 46 48 45 48 48 50 56 58 59 59 64 69 68 75 77 80 83 86 87 77 76 70 62 54 44 31 36 36 37 43 40 37 34 35
26 36 35 36 41 47 56 53 53 51 45 43 46 54 55 60 62 59 69 71 81 88 91 92 92 89 86 90 80 69 63 54 55 53 47 40 32 30 30 34 37 39 34
23 40 42 39 38 45 56 60 58 60 50 46 49 54 71 81 88 89 90 89 90 90 89 88 81 85 75 60 48 48 47 48 41 42 45 44 38 36 30 35 39 37 38